Preview of NWS' New Version of Forecast
This preview is not operational and should not be used for support decisions.

Regional Weather Roundup (RWR)

Issued by National Weather Service (NWS)

                            
000
ASUS46 KSEW 220010
RWRWA 

WASHINGTON REGIONAL WEATHER ROUNDUP
NATIONAL WEATHER SERVICE SEATTLE WA
500 PM PDT SUN APR 21 2019

NOTE:"FAIR" INDICATES FEW OR NO CLOUDS BELOW 12,000 FEET WITH NO 
SIGNIFICANT WEATHER AND/OR OBSTRUCTIONS TO VISIBILITY.

WAZ507-509-555>559-220100-
SEATTLE, TACOMA, EVERETT, AND VICINITY
  
CITY           SKY/WX    TMP DP  RH WIND       PRES   REMARKS
EVERETT        FAIR      56  42  59 W6        30.29F                  
6HR MIN TEMP:  50; 6HR MAX TEMP:  57;                                

BOEING FIELD   FAIR      60  41  49 VRB5      30.29F                  
6HR MIN TEMP:  54; 6HR MAX TEMP:  61;                                

RENTON         FAIR      61  41  47 SW7       30.29S                  
6HR MIN TEMP:  54; 6HR MAX TEMP:  62;                                

SEATAC AIRPORT PTSUNNY   59  41  51 SW8       30.29F                  
6HR MIN TEMP:  52; 6HR MAX TEMP:  60;                                

JBLM-MCCHORD   PTSUNNY   60  47  64 CALM      30.29F                  
6HR MIN TEMP:  53; 6HR MAX TEMP:  61;                                

PUYALLUP       FAIR      61  43  51 SW6       30.29F                  
BREMERTON      PTSUNNY   59  41  51 S9        30.28F                  
6HR MIN TEMP:  52; 6HR MAX TEMP:  61;                                

JBLM-FT LEWIS  FAIR      61  46  57 S8        30.28F                  
6HR MIN TEMP:  52; 6HR MAX TEMP:  62; 6HR PCP: TRACE;                

TACOMA NARROWS FAIR      59  41  51 VRB3      30.29F                  
6HR MIN TEMP:  51; 6HR MAX TEMP:  59;                                

$$
 
WAZ001-503-506-510-514-515-220100-
NORTH INTERIOR
  
CITY           SKY/WX    TMP DP  RH WIND       PRES   REMARKS
BELLINGHAM     PTSUNNY   54  43  66 S12       30.29S                  
6HR MIN TEMP:  53; 6HR MAX TEMP:  57;                                

FRIDAY HARBOR  FAIR      56  40  55 S13G20    30.29F                  
6HR MIN TEMP:  54; 6HR MAX TEMP:  59;                                

EASTSOUND      FAIR      55  43  62 S9G16     30.27F                  
PORT ANGELES   FAIR      51  40  65 NW14      30.31S                  
6HR MIN TEMP:  50; 6HR MAX TEMP:  54;                                

EDIZ HOOK      FAIR      52  41  67 W17       30.31S                  
6HR MIN TEMP:  51; 6HR MAX TEMP:  54;                                

PORT TOWNSEND  PTSUNNY   54  43  66 NW9       30.30S                  
NAS WHIDBEY    PTSUNNY   55  42  61 W7        30.34F                  
6HR MIN TEMP:  53; 6HR MAX TEMP:  57;                                

ARLINGTON      FAIR      59  44  57 VRB5      30.29F                  
6HR MIN TEMP:  51; 6HR MAX TEMP:  60;                                

BURLINGTON     SUNNY     59  46  63 CALM      30.30S                  
$$
 
WAZ020-022-039-040-504-511-512-220100-
SOUTHWEST INTERIOR
  
CITY           SKY/WX    TMP DP  RH WIND       PRES   REMARKS
SHELTON        FAIR      58  40  51 SW13      30.27F                  
6HR MIN TEMP:  53; 6HR MAX TEMP:  60;                                

OLYMPIA        FAIR      60  39  45 S10       30.29F                  
6HR MIN TEMP:  52; 6HR MAX TEMP:  60;                                

CHEHALIS       FAIR      63  43  48 S8        30.29F                  
KELSO          FAIR      59  41  51 CALM      30.31F                  
6HR MIN TEMP:  53; 6HR MAX TEMP:  60;                                

VANCOUVER      FAIR      60  41  49 SW5       30.30F                  
6HR MIN TEMP:  53; 6HR MAX TEMP:  61;                                

SCAPPOOSE, OR  PTSUNNY   62  43  49 NE6       30.30S                  
6HR MIN TEMP:  56; 6HR MAX TEMP:  63;                                

PORTLAND, OR   PTSUNNY   62  40  44 NE3       30.31S                  
6HR MIN TEMP:  55; 6HR MAX TEMP:  63;                                

$$
 
WAZ021-516-517-220100-
WASHINGTON COAST
  
CITY           SKY/WX    TMP DP  RH WIND       PRES   REMARKS
FORKS          CLOUDY    50  38  63 W7        30.33F                  
6HR MIN TEMP:  50; 6HR MAX TEMP:  55;                                

HOQUIAM        FAIR      52  40  63 W12       30.34F                  
6HR MIN TEMP:  50; 6HR MAX TEMP:  55;                                

ASTORIA, OR    FAIR      53  40  61 W9        30.34F                  
6HR MIN TEMP:  52; 6HR MAX TEMP:  56;                                

$$
 
WAZ019-023-024-040-567>569-220100-
CASCADE MOUNTAINS AND COLUMBIA GORGE
  
CITY           SKY/WX    TMP DP  RH WIND       PRES   REMARKS
STAMPEDE PASS  FAIR      49  34  56 MISG      30.24R                  
6HR MIN TEMP:  40; 6HR MAX TEMP:  50;                                

TROUTDALE, OR  FAIR      61  41  47 CALM      30.31S                  
6HR MIN TEMP:  54; 6HR MAX TEMP:  62;                                

HOOD RIVER, OR FAIR      63  39  42 MISG      30.22S                  
THE DALLES, OR FAIR      65  42  43 NW20      30.17S                  
6HR MIN TEMP:  59; 6HR MAX TEMP:  67;                                

$$

WAZ026-027-041>044-520-521-220100-
EAST SLOPES
  
CITY           SKY/WX    TMP DP  RH WIND       PRES   REMARKS
OMAK           FAIR      71  21  15 S12       30.09F                  
6HR MIN TEMP:  60; 6HR MAX TEMP:  71;                                

WENATCHEE      FAIR      69  33  26 S9        30.10F                  
6HR MIN TEMP:  59; 6HR MAX TEMP:  70;                                

ELLENSBURG     FAIR      68  34  28 NW17      30.14S                  
6HR MIN TEMP:  60; 6HR MAX TEMP:  70;                                

YAKIMA         FAIR      70  35  27 VRB3      30.13F                  
6HR MIN TEMP:  62; 6HR MAX TEMP:  71;                                

SUNNYSIDE ARPT FAIR      70  41  34 E5        30.13F                  
6HR MIN TEMP:  62; 6HR MAX TEMP:  71;                                

YAKIMA TC      FAIR      69  30  23 CALM      30.11F                  
6HR MIN TEMP:  60; 6HR MAX TEMP:  69;                                

$$

WAZ028-034-035-220100-
COLUMBIA BASIN
  
CITY           SKY/WX    TMP DP  RH WIND       PRES   REMARKS
EPHRATA        FAIR      70  25  18 SW7       30.12S                  
6HR MIN TEMP:  64; 6HR MAX TEMP:  71;                                

MOSES LAKE     FAIR      72  24  16 SW8       30.13S                  
6HR MIN TEMP:  64; 6HR MAX TEMP:  72;                                

PASCO          FAIR      73  38  27 SE9       30.15R                  
6HR MIN TEMP:  65; 6HR MAX TEMP:  74;                                

RICHLAND ARPT  FAIR      73  38  27 MISG      30.14S                  
6HR MIN TEMP:  65; 6HR MAX TEMP:  74;                                

HERMISTON, OR  FAIR      70  37  29 W8        30.15S                  
6HR MIN TEMP:  62; 6HR MAX TEMP:  71;                                

$$

WAZ036>038-220100-
NORTHEAST WASHINGTON
  
CITY           SKY/WX    TMP DP  RH WIND       PRES   REMARKS
SPOKANE GEIGER PTSUNNY   63  33  32 W9        30.14R                  
6HR MIN TEMP:  54; 6HR MAX TEMP:  65;                                

SPOKANE FELTS  FAIR      67  32  27 W8        30.12S                  
6HR MIN TEMP:  56; 6HR MAX TEMP:  67;                                

FAIRCHILD AFB  PTSUNNY   62  36  37 SW10      30.14R                  
6HR MIN TEMP:  54; 6HR MAX TEMP:  63;                                

COEURDALENE,ID FAIR      65  37  35 W7        30.12S                  
6HR MIN TEMP:  55; 6HR MAX TEMP:  65;                                

DEER PARK      FAIR      65  32  29 VRB6      30.12S                  
6HR MIN TEMP:  57; 6HR MAX TEMP:  66;                                

$$

WAZ029>033-220100-
SOUTHEAST WASHINGTON
  
CITY           SKY/WX    TMP DP  RH WIND       PRES   REMARKS
PULLMAN        FAIR      60  37  42 W9        30.16S                  
6HR MIN TEMP:  52; 6HR MAX TEMP:  60;                                

LEWISTON, ID   FAIR      66  38  35 NW9       30.13F                  
6HR MIN TEMP:  59; 6HR MAX TEMP:  67;                                

WALLA WALLA    FAIR      66  34  30 N3        30.16S                  
6HR MIN TEMP:  57; 6HR MAX TEMP:  66;                                

PENDLETON, OR  FAIR      64  35  34 N3        30.17R                  
6HR MIN TEMP:  57; 6HR MAX TEMP:  64;                                

$$